sat.trackr.live / text

‹ back to catalog

STARLINK-5120

NORAD 53982 · 2022-125U

PAYLOAD ACTIVE UNKNOWN

§ Identity

Operator
Country
US
Launch date
2022-10-05
Launch site
AFWTR
Launch vehicle
Mass (kg)
RCS (m²)

Purposes: comms

External: N2YO · Heavens-Above · Gunter

§ Orbital elements

Epoch: 2026-09-20T22:00:03.000096Z

Period
94.33 min
Inclination
53.1595°
Eccentricity
0.0001332
Mean motion
15.26494505 rev/d
Perigee alt
485.4 km
Apogee alt
487.2 km
Semi-major
6,864.4 km
B*
1.4865e-3
RAAN
56.0431°
Arg perigee
61.4534°
Mean anomaly
153.2116°
Rev number
580

§ Raw data

STARLINK-51201 53982U 22125U   26263.91670139  .00039171  00000+0  14865-2 0  99902 53982  53.1595  56.0431 0001332  61.4534 153.2116 15.26494505  5801

JSON: /api/v1/satellites/53982 · /tle

For live sub-satellite position, see the globe view (requires WebGL).

§ Visibility from observer

Set your observer location to see the next 7 days of passes ≥ 10°. The values pass through the URL so the page stays shareable.

No JS? Fill the form by hand. The geolocation button needs JavaScript.